Change the Weather History Date:

Friday, September 20, 2013

  Actual Average Record
Temperature  
Mean Temperature 74 °F 70 °F  
Max Temperature 88 °F 81 °F 96 °F (2010)
Min Temperature 59 °F 58 °F 48 °F (2004)
Degree Days  
Heating Degree Days 0 1  
Month to date heating degree days 0 2  
Since 1 July heating degree days 0 2  
Cooling Degree Days 9 5  
Month to date cooling degree days 192 168  
Year to date cooling degree days 1370 1433  
Growing Degree Days 23 (Base 50)    
Moisture  
Dew Point 63 °F    
Average Humidity 72    
Maximum Humidity 100    
Minimum Humidity 44    
Precipitation  
Precipitation 0.00 in 0.13 in 1.75 in (1953)
Month to date precipitation 1.40 2.31  
Year to date precipitation 31.43 36.90  
Sea Level Pressure  
Sea Level Pressure 30.00 in    
Wind  
Wind Speed 2 mph (SSE)    
Max Wind Speed 22 mph    
Max Gust Speed 0 mph    
Visibility 9 miles    
Events      
T = Trace of Precipitation, MM = Missing Value Source: NWS Daily Summary

Daily Weather History Graph

Daily Weather History Graph

Search for Another Location

Airport or City:

Trip Planner

Search our weather history database for the weather conditions in past years. The results will help you decide how hot, cold, wet, or windy it might be!

Date:

Astronomy

Sep. 20, 2013 Rise Set
Actual Time 7:26 AM EDT 7:38 PM EDT
Civil Twilight 7:01 AM EDT 8:03 PM EDT
Nautical Twilight 6:31 AM EDT 8:32 PM EDT
Astronomical Twilight 6:02 AM EDT 9:02 PM EDT
Moon 8:18 PM EDT (9/20) 8:34 AM EDT (9/20)
Length of Visible Light 13h 02m
Length of Day
12h 12m
Full, 98% of the Moon is Illuminated
Sep 20
Full
Sep 26
Last Quarter
Oct 4
New
Oct 11
First Quarter
Oct 18
Full

Hourly Weather History & Observations

Time (EDT) Temp. Heat Index Dew Point Humidity Pressure Visibility Wind Dir Wind Speed Gust Speed Precip Events Conditions
12:53 AM 64.0 °F - 62.1 °F 93% 30.07 in 9.0 mi Calm Calm - N/A   Clear
1:53 AM 62.1 °F - 61.0 °F 96% 30.07 in 8.0 mi Calm Calm - N/A   Clear
2:53 AM 63.0 °F - 61.0 °F 93% 30.07 in 9.0 mi Calm Calm - N/A   Clear
3:53 AM 61.0 °F - 59.0 °F 93% 30.06 in 5.0 mi Calm Calm - N/A   Clear
4:53 AM 60.1 °F - 59.0 °F 96% 30.06 in 5.0 mi Calm Calm - N/A   Clear
5:53 AM 60.1 °F - 59.0 °F 96% 30.06 in 6.0 mi Calm Calm - N/A   Clear
6:53 AM 62.1 °F - 60.1 °F 93% 30.06 in 8.0 mi Calm Calm - N/A   Clear
7:53 AM 61.0 °F - 60.1 °F 97% 30.08 in 5.0 mi Calm Calm - N/A   Clear
8:53 AM 64.9 °F - 63.0 °F 93% 30.08 in 6.0 mi Calm Calm - N/A   Clear
9:53 AM 70.0 °F - 64.0 °F 81% 30.07 in 10.0 mi Calm Calm - N/A   Clear
10:53 AM 75.9 °F - 63.0 °F 64% 30.07 in 10.0 mi Calm Calm - N/A   Clear
11:53 AM 80.1 °F 81.7 °F 64.0 °F 58% 30.06 in 10.0 mi Calm Calm - N/A   Clear
12:53 PM 82.9 °F 84.0 °F 63.0 °F 51% 30.03 in 10.0 mi Calm Calm - N/A   Scattered Clouds
1:53 PM 84.9 °F 85.0 °F 61.0 °F 44% 30.00 in 10.0 mi SE 4.6 mph - N/A   Clear
2:53 PM 84.9 °F 85.9 °F 63.0 °F 48% 29.96 in 10.0 mi Variable 6.9 mph - N/A   Clear
3:53 PM 86.0 °F 87.3 °F 64.0 °F 48% 29.93 in 10.0 mi SSE 5.8 mph - N/A   Clear
4:53 PM 86.0 °F 86.8 °F 63.0 °F 46% 29.91 in 10.0 mi South 4.6 mph - N/A   Clear
5:53 PM 84.0 °F 85.8 °F 64.9 °F 53% 29.90 in 10.0 mi South 4.6 mph - N/A   Partly Cloudy
6:53 PM 79.0 °F - 66.9 °F 66% 29.90 in 10.0 mi South 3.5 mph - N/A   Partly Cloudy
7:53 PM 72.0 °F - 66.9 °F 84% 29.89 in 10.0 mi SSE 3.5 mph - N/A   Clear
8:53 PM 73.9 °F - 64.9 °F 73% 29.90 in 10.0 mi SSE 4.6 mph - N/A   Clear
9:53 PM 75.0 °F - 64.0 °F 69% 29.91 in 10.0 mi South 5.8 mph - N/A   Clear
10:53 PM 73.9 °F - 64.0 °F 71% 29.91 in 10.0 mi South 5.8 mph - N/A   Clear
11:53 PM 72.0 °F - 64.0 °F 76% 29.91 in 10.0 mi Calm Calm - N/A   Clear